Portada
METAR-TAF:

METAR-TAF

Aeroports :

Base aèria

Shizuhama, Japó

latitud: 34-49N, longitud: 138-18E, altitud: 7 m

Observació

L'informe es va fer fa 9 hores i 30 minuts, a les 17:05 UTC
Vent 5 kt del Oest
Temperatura 6°C
Humitat 65%
Pressió 1021 hPa
Visibilitat 10 km o més
Escasses núvols a una alçada de 2500 ft
Cel ennuvolat a una alçada de 4000 ft

METAR: RJNY 121705Z 28005KT 9999 FEW025 BKN040 06/00 Q1021 RMK 1CU025 5SC040 A3017

Hora: 11:35 (02:35 UTC)


TAF: manca

Observacions i pronòstics meteorològics de més de 4000 aeroports (METAR i TAF).

Les estacions disponibles són els punts grocs i vermells al mapa.

Posi el ratolí al punt desitjat per veure el nom de l'estació.

Feu clic per veure les observacions i els pronòstics meteorològics.

Per canviar el mapa: feu clic els botons verds amb una creu de color negre per apropar; al botó verd amb un guió per allunyar la imatge; o en les fletxes verdes per a mapes adjacents.


METAR-TAF: